This demonstration page uses our WeatherBlox Daily Observations layout. Learn more.

Left ArrowRight Arrow

34.74481, -87.66753

Hourly Observations for October 11, 2019

Temp ( °F °C ) Dew Point ( °F °C ) Humidity (%) Winds ( mph kmh ) Pressure ( in mb ) Visibility ( mi km ) Precip ( " mm )
12:53 am 00:53 Partly Cloudy 66 18.9 62 16.7 87 87 Calm 30.01 1016 10 16 0.00 0.00
1:53 am 01:53 Mostly Cloudy 66 18.9 62 16.7 87 87 SE 5 7 30.01 1016 10 16 0.00 0.00
2:53 am 02:53 Partly Cloudy 68 20 61 16.1 78 78 SE 7 11 30.00 1016 10 16 0.00 0.00
3:53 am 03:53 Cloudy 69 20.6 61 16.1 76 76 SE 8 13 30.00 1016 10 16 0.00 0.00
4:53 am 04:53 Cloudy 70 21.1 60 15.6 71 71 SE 8 13 30.02 1017 10 16 0.00 0.00
5:53 am 05:53 Cloudy 69 20.6 60 15.6 73 73 SSE 7 11 30.04 1017 10 16 0.00 0.00
6:53 am 06:53 Cloudy 68 20 60 15.6 76 76 SE 8 13 30.05 1018 10 16 0.00 0.00
7:53 am 07:53 Mostly Cloudy 69 20.6 60 15.6 73 73 SSE 8 13 30.06 1018 10 16 0.00 0.00
8:53 am 08:53 Cloudy 72 22.2 59 15 64 64 SSE 14 22 30.06 1018 10 16 0.00 0.00
9:53 am 09:53 Mostly Sunny 74 23.3 58 14.4 57 57 SSE 9 15 30.06 1018 10 16 0.00 0.00
10:53 am 10:53 Cloudy 78 25.6 58 14.4 50 50 SSE 13 20 30.06 1018 10 16 0.00 0.00
11:53 am 11:53 Mostly Cloudy 84 28.9 58 14.4 41 41 S 10 17 30.04 1017 10 16 0.00 0.00
12:53 pm 12:53 Cloudy 82 27.8 61 16.1 49 49 SSW 15 24 30.01 1016 10 16 0.00 0.00
1:53 pm 13:53 Cloudy 85 29.4 61 16.1 45 45 SSW 12 19 29.98 1015 10 16 0.00 0.00
2:53 pm 14:53 Mostly Cloudy 82 27.8 60 15.6 47 47 S 6 9 29.96 1015 10 16 0.00 0.00
3:53 pm 15:53 Cloudy 81 27.2 58 14.4 45 45 SSW 8 13 29.97 1015 10 16 0.00 0.00
4:53 pm 16:53 Mostly Cloudy with Rain 72 22.2 64 17.8 76 76 SSW 3 6 29.99 1016 3 5 0.05 1.27
5:53 pm 17:53 Mostly Cloudy 71 21.7 67 19.4 87 87 W 7 11 30.01 1016 10 16 0.02 0.51
6:53 pm 18:53 Cloudy 71 21.7 68 20 90 90 W 5 7 30.02 1017 10 16 0.00 0.00
7:53 pm 19:53 Cloudy 71 21.7 68 20 90 90 NW 9 15 30.02 1017 10 16 0.00 0.00
7:57 pm 19:57 Cloudy 69 20.6 66 18.9 90 90 NW 12 19 30.03 1017 10 16 0.00 0.00
8:06 pm 20:06 Cloudy 66 18.9 63 17.2 90 90 NW 12 19 30.04 1017 10 16 0.00 0.00
8:21 pm 20:21 Cloudy 65 18.3 61 16.1 87 87 NW 10 17 30.05 1018 10 16 0.00 0.00
8:53 pm 20:53 Cloudy with Light Rain 63 17.2 59 15 87 87 NW 13 20 30.05 1018 10 16 0.00 0.00
9:53 pm 21:53 Cloudy 60 15.6 57 13.9 90 90 WNW 9 15 30.08 1019 10 16 0.00 0.00
10:43 pm 22:43 Cloudy with Light Rain 58 14.4 55 12.8 90 90 NNW 12 19 30.12 1020 7 11 0.00 0.00
10:53 pm 22:53 Cloudy with Light Rain 58 14.4 54 12.2 87 87 NNW 10 17 30.10 1019 6 10 0.01 0.25
11:53 pm 23:53 Cloudy 55 12.8 52 11.1 90 90 NNW 10 17 30.11 1020 10 16 0.00 0.00

Powered by AerisWeather